• Em Portugal
  • Lista de países
  • Para 7 dias
  • Temperatura da água
  • Mapas de satélite
  • Mapa do tempo
  • Widgets de tempo
  • user-avatar
    Iniciar Sessão

    Previsão horária em Santo Vlas

    Hoje, 22 Outubro, Segunda-feira

    Tempo Temperatura Precipitação Vento Pressão Humidade
    00:00 +13°C° 0 mm 4 m/s 759 mmHg 86%
    01:00 +12°C° 0 mm 5 m/s 759 mmHg 85%
    02:00 +12°C° 0 mm 5 m/s 759 mmHg 83%
    03:00 +10°C° 0 mm 5 m/s 759 mmHg 82%
    04:00 +10°C° 0 mm 5 m/s 759 mmHg 82%
    05:00 +9°C° 0 mm 5 m/s 759 mmHg 81%
    06:00 +10°C° 0 mm 5 m/s 759 mmHg 78%
    07:00 +10°C° 0 mm 5 m/s 759 mmHg 75%
    08:00 +10°C° 0 mm 6 m/s 760 mmHg 72%
    09:00 +13°C° 0 mm 5 m/s 760 mmHg 66%
    10:00 +15°C° 0 mm 5 m/s 760 mmHg 60%
    11:00 +16°C° 0 mm 5 m/s 760 mmHg 54%
    12:00 +17°C° 0 mm 5 m/s 760 mmHg 52%
    13:00 +19°C° 0 mm 5 m/s 759 mmHg 50%
    14:00 +19°C° 0 mm 5 m/s 759 mmHg 47%
    15:00 +17°C° 0 mm 5 m/s 759 mmHg 51%
    16:00 +17°C° 0 mm 4 m/s 759 mmHg 54%
    17:00 +15°C° 0 mm 4 m/s 759 mmHg 58%
    18:00 +14°C° 0 mm 4 m/s 759 mmHg 63%
    19:00 +13°C° 0 mm 4 m/s 759 mmHg 68%
    20:00 +12°C° 0 mm 3 m/s 759 mmHg 73%
    21:00 +12°C° 0 mm 3 m/s 759 mmHg 74%
    22:00 +12°C° 0 mm 3 m/s 759 mmHg 75%
    23:00 +11°C° 0 mm 3 m/s 759 mmHg 77%

    Amanhã, 23 Outubro, Terça-feira

    Tempo Temperatura Precipitação Vento Pressão Humidade
    00:00 +11°C° 0 mm 3 m/s 759 mmHg 76%
    01:00 +11°C° 0 mm 3 m/s 759 mmHg 75%
    02:00 +10°C° 0 mm 3 m/s 759 mmHg 75%
    03:00 +10°C° 0 mm 3 m/s 759 mmHg 74%
    04:00 +10°C° 0 mm 3 m/s 758 mmHg 73%
    05:00 +10°C° 0 mm 4 m/s 758 mmHg 72%
    06:00 +10°C° 0 mm 3 m/s 758 mmHg 69%
    07:00 +11°C° 0 mm 3 m/s 758 mmHg 66%
    08:00 +11°C° 0 mm 3 m/s 759 mmHg 63%
    09:00 +13°C° 0 mm 3 m/s 759 mmHg 57%
    10:00 +16°C° 0 mm 3 m/s 759 mmHg 51%
    11:00 +18°C° 0 mm 3 m/s 759 mmHg 45%
    12:00 +18°C° 0 mm 3 m/s 758 mmHg 43%
    13:00 +19°C° 0 mm 2 m/s 757 mmHg 41%
    14:00 +20°C° 0 mm 2 m/s 757 mmHg 38%
    15:00 +19°C° 0 mm 2 m/s 757 mmHg 42%
    16:00 +18°C° 0 mm 2 m/s 756 mmHg 47%
    17:00 +17°C° 0 mm 2 m/s 756 mmHg 51%
    18:00 +16°C° 0 mm 2 m/s 756 mmHg 56%
    19:00 +15°C° 0 mm 2 m/s 756 mmHg 61%
    20:00 +14°C° 0 mm 2 m/s 756 mmHg 66%
    21:00 +13°C° 0 mm 2 m/s 755 mmHg 67%
    22:00 +13°C° 0 mm 2 m/s 755 mmHg 68%
    23:00 +12°C° 0 mm 2 m/s 755 mmHg 69%

    Depois de amanhã, 24 Outubro, Quarta-feira

    Tempo Temperatura Precipitação Vento Pressão Humidade
    00:00 +11°C° 0 mm 3 m/s 754 mmHg 68%
    01:00 +11°C° 0 mm 3 m/s 753 mmHg 67%
    02:00 +11°C° 0 mm 3 m/s 753 mmHg 66%
    03:00 +11°C° 0 mm 4 m/s 752 mmHg 66%
    04:00 +11°C° 0 mm 4 m/s 752 mmHg 67%
    05:00 +10°C° 0 mm 5 m/s 751 mmHg 68%
    06:00 +10°C° 0 mm 5 m/s 751 mmHg 65%
    07:00 +11°C° 0 mm 6 m/s 751 mmHg 62%
    08:00 +13°C° 0 mm 6 m/s 750 mmHg 59%
    09:00 +14°C° 0 mm 7 m/s 750 mmHg 52%
    10:00 +16°C° 0 mm 7 m/s 749 mmHg 46%
    11:00 +18°C° 0 mm 8 m/s 748 mmHg 39%
    12:00 +20°C° 0 mm 8 m/s 747 mmHg 38%
    13:00 +20°C° 0 mm 8 m/s 746 mmHg 37%
    14:00 +21°C° 0 mm 9 m/s 745 mmHg 36%
    15:00 +20°C° 0 mm 8 m/s 745 mmHg 37%
    16:00 +20°C° 0 mm 8 m/s 745 mmHg 39%
    17:00 +18°C° 0 mm 8 m/s 744 mmHg 41%
    18:00 +17°C° 0.1 mm 8 m/s 745 mmHg 45%
    19:00 +16°C° 0.1 mm 8 m/s 745 mmHg 49%
    20:00 +15°C° 0.1 mm 9 m/s 745 mmHg 53%
    21:00 +12°C° 0.3 mm 9 m/s 746 mmHg 49%
    22:00 +11°C° 0.3 mm 9 m/s 747 mmHg 45%
    23:00 +8°C° 0.3 mm 9 m/s 748 mmHg 41%

    25 Outubro, Quinta-feira

    Tempo Temperatura Precipitação Vento Pressão Humidade
    00:00 +8°C° 0 mm 9 m/s 748 mmHg 41%
    01:00 +7°C° 0 mm 9 m/s 749 mmHg 41%
    02:00 +6°C° 0 mm 8 m/s 749 mmHg 41%
    03:00 +6°C° 0 mm 8 m/s 749 mmHg 42%
    04:00 +5°C° 0 mm 8 m/s 750 mmHg 42%
    05:00 +5°C° 0 mm 8 m/s 750 mmHg 42%
    06:00 +5°C° 0 mm 9 m/s 750 mmHg 42%
    07:00 +5°C° 0 mm 9 m/s 751 mmHg 41%
    08:00 +5°C° 0 mm 9 m/s 751 mmHg 41%
    09:00 +7°C° 0 mm 9 m/s 752 mmHg 38%
    10:00 +9°C° 0 mm 8 m/s 752 mmHg 35%
    11:00 +10°C° 0 mm 8 m/s 753 mmHg 32%
    12:00 +11°C° 0 mm 8 m/s 753 mmHg 31%
    13:00 +12°C° 0 mm 8 m/s 753 mmHg 29%
    14:00 +12°C° 0 mm 7 m/s 753 mmHg 27%
    15:00 +12°C° 0 mm 7 m/s 753 mmHg 29%
    16:00 +11°C° 0 mm 7 m/s 753 mmHg 30%
    17:00 +10°C° 0 mm 6 m/s 753 mmHg 31%
    18:00 +9°C° 0 mm 6 m/s 753 mmHg 34%
    19:00 +9°C° 0 mm 6 m/s 753 mmHg 37%
    20:00 +8°C° 0 mm 5 m/s 753 mmHg 40%
    21:00 +8°C° 0 mm 6 m/s 753 mmHg 43%
    22:00 +8°C° 0 mm 6 m/s 753 mmHg 46%
    23:00 +8°C° 0 mm 7 m/s 753 mmHg 49%

    26 Outubro, Sexta-feira

    Tempo Temperatura Precipitação Vento Pressão Humidade
    00:00 +8°C° 0 mm 7 m/s 753 mmHg 54%
    01:00 +8°C° 0 mm 7 m/s 753 mmHg 58%
    02:00 +8°C° 0 mm 7 m/s 753 mmHg 63%
    03:00 +8°C° 0 mm 7 m/s 753 mmHg 67%
    04:00 +8°C° 0 mm 6 m/s 753 mmHg 70%
    05:00 +8°C° 0 mm 6 m/s 753 mmHg 74%
    06:00 +8°C° 0 mm 6 m/s 754 mmHg 73%
    07:00 +9°C° 0 mm 5 m/s 754 mmHg 72%
    08:00 +9°C° 0 mm 5 m/s 755 mmHg 71%
    09:00 +13°C° 0 mm 5 m/s 755 mmHg 63%
    10:00 +15°C° 0 mm 5 m/s 756 mmHg 56%
    11:00 +18°C° 0 mm 4 m/s 756 mmHg 48%
    12:00 +18°C° 0 mm 3 m/s 756 mmHg 45%
    13:00 +19°C° 0 mm 3 m/s 756 mmHg 43%
    14:00 +20°C° 0 mm 2 m/s 756 mmHg 40%
    15:00 +19°C° 0 mm 2 m/s 756 mmHg 43%
    16:00 +18°C° 0 mm 3 m/s 756 mmHg 46%
    17:00 +17°C° 0 mm 4 m/s 756 mmHg 50%
    18:00 +15°C° 0 mm 4 m/s 757 mmHg 55%
    19:00 +14°C° 0 mm 4 m/s 757 mmHg 60%
    20:00 +13°C° 0 mm 5 m/s 757 mmHg 65%
    21:00 +13°C° 0 mm 5 m/s 757 mmHg 67%
    22:00 +13°C° 0 mm 5 m/s 757 mmHg 69%
    23:00 +12°C° 0 mm 4 m/s 758 mmHg 71%

    27 Outubro, Sábado

    Tempo Temperatura Precipitação Vento Pressão Humidade
    00:00 +12°C° 0 mm 5 m/s 757 mmHg 73%
    01:00 +12°C° 0 mm 5 m/s 757 mmHg 75%
    02:00 +12°C° 0 mm 5 m/s 757 mmHg 77%
    03:00 +10°C° 0 mm 5 m/s 757 mmHg 80%
    04:00 +11°C° 0 mm 4 m/s 757 mmHg 82%
    05:00 +11°C° 0 mm 4 m/s 757 mmHg 85%
    06:00 +12°C° 0 mm 4 m/s 757 mmHg 83%
    07:00 +12°C° 0 mm 4 m/s 757 mmHg 80%
    08:00 +13°C° 0 mm 4 m/s 757 mmHg 78%
    09:00 +15°C° 0 mm 5 m/s 757 mmHg 68%
    10:00 +17°C° 0 mm 5 m/s 757 mmHg 58%
    11:00 +21°C° 0 mm 6 m/s 757 mmHg 49%
    12:00 +22°C° 0 mm 6 m/s 756 mmHg 46%
    13:00 +22°C° 0 mm 6 m/s 756 mmHg 44%
    14:00 +23°C° 0 mm 7 m/s 755 mmHg 41%
    15:00 +22°C° 0 mm 6 m/s 755 mmHg 45%
    16:00 +22°C° 0 mm 6 m/s 755 mmHg 49%
    17:00 +21°C° 0 mm 6 m/s 755 mmHg 52%
    18:00 +20°C° 0 mm 6 m/s 755 mmHg 56%
    19:00 +19°C° 0 mm 6 m/s 755 mmHg 59%
    20:00 +17°C° 0 mm 6 m/s 755 mmHg 62%
    21:00 +17°C° 0 mm 6 m/s 755 mmHg 67%
    22:00 +17°C° 0 mm 7 m/s 755 mmHg 72%
    23:00 +16°C° 0 mm 7 m/s 755 mmHg 77%

    28 Outubro, Domingo

    Tempo Temperatura Precipitação Vento Pressão Humidade
    00:00 +16°C° 0 mm 7 m/s 755 mmHg 79%
    01:00 +16°C° 0 mm 7 m/s 755 mmHg 81%
    02:00 +16°C° 0 mm 7 m/s 755 mmHg 84%
    03:00 +16°C° 0 mm 7 m/s 755 mmHg 84%
    04:00 +16°C° 0 mm 7 m/s 755 mmHg 84%
    05:00 +16°C° 0 mm 7 m/s 755 mmHg 85%
    06:00 +16°C° 0 mm 7 m/s 756 mmHg 83%
    07:00 +17°C° 0 mm 7 m/s 756 mmHg 81%
    08:00 +17°C° 0 mm 7 m/s 756 mmHg 79%
    09:00 +18°C° 0 mm 7 m/s 756 mmHg 72%
    10:00 +21°C° 0 mm 7 m/s 756 mmHg 65%
    11:00 +23°C° 0 mm 8 m/s 757 mmHg 58%
    12:00 +23°C° 0 mm 8 m/s 756 mmHg 55%
    13:00 +24°C° 0 mm 7 m/s 756 mmHg 51%
    14:00 +26°C° 0 mm 7 m/s 756 mmHg 47%
    15:00 +24°C° 0 mm 7 m/s 756 mmHg 50%
    16:00 +23°C° 0 mm 7 m/s 755 mmHg 52%
    17:00 +22°C° 0 mm 6 m/s 755 mmHg 54%
    18:00 +21°C° 0 mm 6 m/s 756 mmHg 58%
    19:00 +20°C° 0 mm 6 m/s 756 mmHg 61%
    20:00 +19°C° 0 mm 6 m/s 756 mmHg 64%
    21:00 +19°C° 0 mm 6 m/s 756 mmHg 65%
    22:00 +19°C° 0 mm 6 m/s 756 mmHg 67%
    23:00 +17°C° 0 mm 6 m/s 756 mmHg 68%
    Mostrar mais